KUIPER-00200

导读 | 豆包AI

KUIPER-00200是美国亚马逊“柯伊伯计划”卫星互联网星座中的一员,于2026年2月12日由法国发射入轨。柯伊伯计划旨在近地轨道部署超3200颗卫星,为全球提供高速卫星互联网服务,该卫星的成功发射是星座组网进程的组成部分,将与SpaceX星链项目形成市场竞争,推动全球宽带覆盖发展。

Basic Information
目录编号:
67772
目录名称:
KUIPER-00200
国际标识:
2026-030J
轨道中心:
EARTH
卫星名称:
KUIPER-00200
卫星全名:
KUIPER-00200
卫星状态:
在轨 (已飞行30 天)
发射日期:
2026-02-12 UTC
国别 :
美国 (US)
星等 :
--
Orbit Information
数据来源 国际轨道数据 AOE轨道数据
星历时间 2026-03-14T04:05:34+0800
18小时前
查看轨道信息
2026-03-11T09:00:00+0800
3天前
查看轨道信息
半长轴 6832.199km 6832.555km
偏心率 0.0001913 0.0001365
轨道倾角 51.881° 51.882°
近地点辐角 295.545° 303.411°
升交点赤经 198.878° 212.393°
平近点角 64.534° 56.136°
近地点 452.755km 453.485km
远地点 455.369km 455.351km
周期 93.670分钟 93.677分钟
每日圈数 15.373121 15.371921
Detailed Information
使用方式:
暂无
2D Orbit Map
3D Orbit Map
Orbit Altitude Analysis Chart
Orbit Inclination Analysis Chart
Orbit Comprehensive Analysis Chart
View Comprehensive Chart